Location: Bush Observatory
(40.2653°N, 94.3194°W)
Time: 13:10:32
(UTC-06:00)

Vanguard 1 - Visible Passes

Search period start: 31 January 2015 00:00
Search period end: 10 February 2015 00:00
Orbit: 653 x 3833 km, 34.2° (Epoch: 30 January)

Date Brightness Start Highest point End Pass type
(mag) Time Alt. Az. Time Alt. Az. Time Alt. Az.
31 Jan 13.5 02:27:27 21° SSE 02:28:30 21° SSE 02:39:07 10° ESE visible
31 Jan 12.5 04:40:17 19° SW 04:52:24 44° SSE 05:02:10 10° E visible
01 Feb 13.2 02:48:29 27° SSE 02:50:20 28° SSE 03:01:53 10° E visible
01 Feb 12.2 05:01:17 19° SW 05:14:04 51° SSE 05:23:41 10° E visible
02 Feb 13.0 03:09:16 33° SSE 03:12:07 35° SSE 03:24:05 10° E visible
02 Feb 12.0 05:22:05 17° WSW 05:35:41 57° SSE 05:45:05 10° E visible
03 Feb 13.8 01:17:07 15° ESE 01:17:07 15° ESE 01:20:44 10° ESE visible
03 Feb 12.8 03:29:53 38° S 03:33:52 42° SSE 03:45:56 10° E visible
03 Feb 11.9 05:42:40 15° WSW 05:57:19 62° S 06:06:26 10° E visible
04 Feb 13.5 01:37:35 22° ESE 01:37:35 22° ESE 01:44:14 10° E visible
04 Feb 12.5 03:50:22 41° SSW 03:55:36 49° SSE 04:07:35 10° E visible
04 Feb 11.8 06:03:08 12° WSW 06:18:54 65° S 06:27:45 10° E visible
05 Feb 13.3 01:57:57 29° ESE 01:57:57 29° ESE 02:06:51 10° E visible
05 Feb 12.4 04:10:43 41° SSW 04:17:18 56° SSE 04:29:06 10° E visible
05 Feb 11.7 06:24:13 10° W 06:40:27 66° S 06:49:01 10° ESE visible
06 Feb 13.0 02:18:12 37° SE 02:18:12 37° SE 02:28:59 10° E visible
06 Feb 12.2 04:30:57 39° SW 04:39:01 62° SSE 04:50:33 10° E visible
06 Feb 11.7 06:46:18 10° W 07:01:58 64° S 07:10:14 10° ESE visible
07 Feb 12.8 02:38:22 46° SE 02:38:22 46° SE 02:50:50 10° E visible
07 Feb 12.1 04:51:06 34° WSW 05:00:43 66° S 05:11:57 10° E visible
08 Feb 13.8 00:45:42 15° E 00:45:42 15° E 00:48:31 10° E visible
08 Feb 12.6 02:58:26 54° SSE 02:58:26 54° SSE 03:12:31 10° E visible
08 Feb 12.1 05:11:10 29° WSW 05:22:25 69° S 05:33:17 10° E visible
09 Feb 13.6 01:05:43 22° E 01:05:43 22° E 01:11:05 10° E visible
09 Feb 12.5 03:18:27 59° S 03:19:47 60° SSE 03:34:05 10° E visible
09 Feb 12.0 05:31:10 24° WSW 05:44:05 69° S 05:54:35 10° ESE visible
